Theta_e
335 334 334 335 337 337 337 337 337 336 336 335 336 336 335 335 334 334 335 335 335 335 334 334 334 335 336 334 332 332 331 330 328 326 325 324 324 325 326 326 326 325 325 326 326 326 324 325 327 327 327 327 329 331 332 334 334 331 331 330 329 328
335 335 334 334 335 335 336 336 336 336 336 335 335 336 335 334 334 334 333 333 334 335 334 334 334 335 336 335 334 333 333 332 331 330 329 326 324 324 324 325 326 326 325 326 326 327 326 325 326 326 327 328 329 330 332 334 332 329 329 330 330 328
334 335 334 335 335 335 335 335 335 334 334 333 333 333 333 333 333 333 333 332 333 333 332 333 334 335 337 337 336 335 334 334 333 332 330 329 327 325 324 324 324 325 326 326 328 330 330 329 329 329 330 331 331 332 333 335 334 329 328 330 328 326
334 334 334 334 333 333 334 334 334 333 333 332 331 331 331 332 332 332 332 332 333 332 330 331 332 335 337 336 336 335 335 335 333 333 332 331 329 327 327 325 323 323 324 325 327 331 333 333 333 333 333 333 333 333 334 335 335 330 328 328 326 327
334 333 332 332 332 331 332 333 333 332 332 331 330 330 330 331 331 332 332 332 332 330 329 330 330 333 335 334 334 334 334 334 334 334 334 333 333 332 332 330 327 326 325 325 325 328 333 334 333 334 334 334 334 334 334 335 336 334 330 329 328 329
334 333 332 333 332 331 332 333 333 332 332 331 331 331 331 331 332 333 331 331 331 330 331 331 332 333 335 335 335 335 335 335 335 336 335 335 334 334 334 333 332 333 333 332 330 329 331 332 332 333 334 334 335 335 335 336 337 336 334 331 331 331
330 332 332 333 331 330 333 333 333 333 333 333 333 334 335 333 333 333 332 332 332 332 333 333 333 334 335 335 335 336 336 337 336 336 336 336 334 334 334 333 333 334 336 336 335 334 333 333 333 333 334 334 334 335 336 336 336 336 335 334 333 333
327 330 331 330 329 331 333 333 331 331 332 333 334 335 335 334 335 335 333 331 332 333 333 333 334 334 334 335 335 336 336 337 336 336 336 336 335 334 333 333 334 334 334 335 335 335 335 334 334 334 334 333 334 335 335 336 335 336 336 335 334 334
327 329 331 331 332 333 333 332 330 330 331 331 332 334 334 334 335 335 334 333 332 332 333 334 334 334 334 335 335 335 336 336 336 335 335 335 335 334 333 333 334 334 334 334 334 334 334 334 334 333 334 333 334 335 335 336 336 336 336 335 335 335
326 329 332 333 334 335 334 333 331 329 330 331 331 333 333 334 335 335 335 336 334 332 333 334 334 334 334 335 335 335 335 336 336 335 335 334 334 334 333 333 333 334 335 334 334 334 335 334 334 333 333 333 333 335 335 335 336 336 335 335 335 335
328 331 332 333 334 334 334 334 332 330 331 332 332 332 332 333 334 333 333 334 333 332 332 333 333 333 334 334 334 333 333 335 335 335 334 333 333 333 333 333 333 334 335 335 335 335 335 334 334 334 333 333 334 334 335 335 335 335 335 336 335 335
331 331 332 333 333 333 333 333 332 332 332 330 330 331 331 331 331 332 333 332 331 331 331 331 331 331 332 332 332 331 331 331 332 333 334 334 334 334 334 334 334 334 335 335 335 335 335 335 335 334 333 334 334 335 335 335 335 335 335 335 335 335
332 331 332 332 332 332 332 332 331 330 327 324 326 331 331 330 329 332 333 330 329 329 328 329 329 329 330 331 331 331 330 330 331 333 334 334 334 335 335 335 334 335 335 335 335 335 335 334 334 334 334 334 334 334 335 335 335 336 336 334 335 335
331 332 333 332 332 331 328 329 328 324 322 322 323 326 328 328 329 331 331 329 328 328 326 327 327 326 326 327 329 330 330 330 331 332 334 334 334 334 334 334 333 334 335 335 335 334 334 334 333 333 334 334 334 334 334 334 334 335 335 334 333 334
332 333 332 332 331 327 323 324 324 321 321 322 322 323 326 327 330 330 330 329 328 327 326 327 325 323 320 320 324 328 329 330 330 331 332 333 332 332 333 332 333 334 333 333 334 334 333 333 333 332 332 334 334 334 334 333 333 333 333 332 333 334
329 330 331 331 329 325 321 321 321 321 321 322 322 326 327 327 329 328 328 328 325 324 324 325 324 323 322 320 323 328 329 329 330 330 330 331 331 331 331 331 332 333 333 332 333 333 333 332 332 332 332 334 334 334 334 333 334 333 333 333 333 334
320 324 328 330 328 324 320 319 319 320 322 323 324 327 328 327 327 326 326 325 323 323 324 325 325 325 325 323 324 328 328 329 329 329 330 330 331 331 330 331 332 332 332 332 332 332 332 331 331 331 331 332 333 333 333 333 334 334 334 334 334 335
314 317 322 327 325 321 319 319 322 323 324 325 325 326 327 327 326 324 323 323 323 324 325 326 326 326 326 325 327 328 328 328 328 328 329 329 330 330 330 330 330 330 330 331 331 330 331 330 329 329 330 331 331 331 331 331 332 333 334 334 335 335
313 314 318 321 320 320 321 321 324 325 325 326 325 325 325 324 323 322 322 323 325 326 326 327 327 327 326 327 328 328 327 327 327 328 329 329 330 330 330 329 329 328 329 329 329 329 329 329 329 329 330 329 329 329 329 329 331 333 335 335 335 335
317 317 319 321 322 322 321 323 325 326 325 326 326 325 324 322 322 324 324 325 326 326 326 327 327 327 327 327 328 327 327 328 328 328 328 329 329 329 328 328 328 328 328 328 328 329 329 329 329 329 328 327 328 329 329 329 330 332 334 335 334 333
322 323 323 323 322 323 323 324 325 326 327 327 327 325 323 323 324 326 326 326 326 327 327 327 328 328 327 327 327 327 328 327 327 328 328 328 328 328 327 327 327 327 327 327 328 328 329 329 329 328 328 326 326 328 329 329 330 331 332 332 331 331
325 323 323 323 320 321 324 325 324 326 327 327 327 325 323 324 326 326 326 326 326 327 328 328 329 328 328 327 327 327 327 327 327 327 327 327 327 327 327 327 327 327 327 327 328 328 329 329 329 328 329 330 330 330 328 328 330 330 330 330 330 330
324 323 323 322 319 318 321 324 324 325 325 325 326 325 324 325 326 326 326 326 326 327 328 328 329 328 328 328 328 328 327 327 326 326 327 327 327 327 327 327 327 327 327 327 328 328 329 328 329 328 329 333 334 335 335 329 329 330 329 329 330 330
323 324 323 321 321 321 322 323 324 325 325 325 324 325 325 325 326 326 326 327 327 327 327 327 328 328 327 328 328 328 328 327 326 326 326 326 326 326 326 327 327 327 327 327 327 328 329 328 328 329 330 332 330 335 342 334 328 329 329 328 329 329
324 324 322 319 322 325 326 326 325 325 325 325 323 324 326 325 326 326 326 327 326 326 327 327 327 327 327 327 327 327 327 327 327 327 326 326 326 326 326 326 326 326 326 326 327 327 328 329 328 329 330 331 331 335 340 333 328 328 328 329 328 329
325 325 322 319 322 323 325 327 327 326 326 324 322 323 325 325 325 326 326 327 326 326 326 326 326 326 326 327 326 326 326 326 326 326 326 326 326 326 326 326 326 326 326 326 327 327 328 328 328 329 328 329 331 334 333 331 332 330 327 328 329 330
324 326 323 320 322 323 324 325 325 327 327 324 320 322 324 325 325 325 326 327 326 325 326 325 326 325 326 326 326 326 325 325 325 325 325 325 325 326 326 326 327 326 327 327 327 327 328 328 328 329 329 329 329 329 329 330 334 332 329 328 329 330
323 325 323 320 323 325 325 325 324 325 325 323 321 322 324 324 324 325 326 326 326 325 325 325 326 325 325 326 326 326 324 324 325 325 325 325 325 326 326 326 327 327 327 328 327 327 327 328 328 328 329 329 329 329 328 328 330 331 331 330 328 328
323 325 323 322 325 326 324 324 324 323 322 322 322 323 324 325 325 325 325 326 325 325 324 324 324 324 324 325 325 325 324 324 325 325 325 325 325 325 326 326 327 327 327 327 327 327 327 327 327 328 328 328 328 328 328 328 328 328 329 330 329 327
323 325 325 323 324 324 324 325 324 322 321 321 323 324 324 325 325 325 325 325 325 324 323 323 322 322 322 324 324 324 324 324 324 324 324 324 324 324 325 326 326 326 326 327 326 326 326 327 326 326 327 327 327 327 327 327 327 327 327 328 328 326
324 326 325 323 322 323 324 325 325 323 321 320 322 324 324 325 325 325 324 324 324 323 323 322 321 321 321 322 323 323 324 324 323 323 323 323 323 323 323 324 324 324 324 325 325 325 326 326 326 325 325 326 326 326 326 326 326 326 327 327 327 325
325 326 324 323 322 323 324 325 324 322 321 319 321 323 324 324 324 324 324 323 323 323 322 321 320 320 320 322 322 323 323 324 323 323 323 322 322 322 322 322 322 322 323 323 324 324 324 325 325 324 324 325 325 325 325 326 326 326 326 326 325 324
324 325 324 322 322 324 324 324 323 321 322 320 320 323 323 324 323 323 323 323 322 322 320 320 320 319 320 321 322 322 323 323 323 323 322 322 321 321 321 321 321 321 321 322 322 322 322 323 324 324 324 323 323 324 324 325 325 325 326 325 325 324
324 325 324 322 322 324 324 323 322 321 322 320 320 323 323 323 323 322 322 322 321 321 320 319 319 319 320 321 321 322 323 323 322 322 321 321 321 320 320 320 320 320 320 320 321 321 320 322 323 322 322 323 322 322 322 323 323 323 324 325 325 324
324 324 324 322 322 324 323 322 322 322 321 320 320 323 323 322 322 322 321 320 319 319 318 318 319 319 320 321 321 322 323 323 322 322 321 321 321 319 319 319 319 319 319 319 319 319 319 320 320 319 320 322 322 320 320 320 320 321 322 324 325 324
324 324 324 323 322 324 324 322 323 322 321 320 321 322 322 321 321 320 320 319 318 317 315 317 319 319 319 320 321 322 323 323 322 321 320 320 320 319 318 318 318 318 318 318 317 317 317 318 318 318 319 320 319 318 317 317 318 319 321 323 325 324
324 324 324 323 323 324 324 323 323 322 320 321 322 322 321 321 319 319 318 318 317 316 314 316 318 319 320 320 320 321 322 322 321 321 319 319 318 318 317 316 316 315 316 317 316 315 315 316 316 317 317 317 317 316 316 316 317 320 321 323 324 324
Wind_Speed
14 13 12 12 12 10 9 9 10 9 9 9 8 7 7 6 6 6 6 5 4 4 4 4 3 3 2 2 3 3 2 3 3 3 5 6 7 7 6 5 4 4 3 4 5 5 7 9 8 6 4 3 1 1 3 5 7 3 6 10 9 7
14 13 13 13 12 11 10 9 9 9 9 8 7 6 5 6 5 5 5 4 3 2 3 3 2 2 2 2 1 1 1 1 1 1 2 3 5 6 6 6 5 4 4 3 5 6 6 7 7 6 5 4 3 2 1 4 4 3 4 9 8 7
13 13 12 13 12 11 10 9 8 8 9 9 7 5 4 5 5 4 4 3 3 2 2 2 2 1 1 2 3 3 1 1 0 0 1 2 3 4 4 6 6 7 6 5 5 5 5 5 5 4 4 4 4 3 1 3 3 2 3 8 7 6
13 13 12 12 11 11 10 9 8 8 8 7 6 5 4 4 4 3 2 2 1 2 1 1 1 0 1 2 4 4 2 2 1 1 2 2 2 2 2 4 5 7 7 7 6 5 4 4 3 2 2 2 3 3 2 2 2 1 3 6 6 5
12 11 11 10 10 10 9 9 8 8 7 6 5 4 4 3 3 2 2 2 1 2 1 1 1 1 2 3 4 4 3 3 3 2 2 3 3 2 2 2 4 5 6 6 7 6 5 4 4 4 4 3 3 3 3 3 3 3 5 6 5 5
10 10 10 9 10 10 9 8 8 8 6 6 5 4 3 3 2 1 2 2 0 1 1 1 1 2 2 4 4 5 5 5 5 4 4 4 3 3 2 2 3 4 4 5 6 6 7 7 8 8 7 6 5 5 5 5 6 6 6 7 7 6
9 9 10 10 10 10 9 8 8 7 6 5 4 3 2 1 1 1 2 2 1 1 2 2 3 3 3 5 5 5 5 5 6 7 7 7 6 5 3 3 5 5 5 6 6 6 8 10 10 10 9 8 7 7 6 6 8 8 8 8 8 8
11 10 10 10 10 10 9 8 7 6 5 3 2 1 0 1 1 2 4 4 3 2 4 4 4 5 5 6 7 7 7 7 7 8 8 10 9 8 6 4 6 7 8 8 8 9 9 11 11 11 11 11 10 9 8 8 10 10 10 11 10 10
12 12 10 10 10 9 8 7 6 4 2 2 2 2 2 3 4 3 5 7 6 3 5 6 5 5 5 6 8 9 9 9 8 8 9 11 10 9 8 6 7 9 10 10 11 11 11 12 12 12 12 12 13 12 10 10 11 12 12 12 12 12
11 10 9 9 9 8 7 6 6 4 4 4 4 4 5 5 6 6 6 8 8 3 4 5 4 4 5 6 8 9 9 9 9 9 10 10 10 9 8 8 9 10 10 11 11 10 10 11 12 11 12 12 13 13 12 12 13 13 14 14 14 13
10 8 6 5 5 5 5 5 5 5 4 3 3 3 5 5 6 7 7 7 8 5 3 4 5 5 5 6 8 10 8 6 8 10 11 10 8 7 7 7 9 11 12 12 12 11 10 10 10 9 9 11 12 13 14 13 15 15 15 15 15 14
8 5 3 3 4 4 4 4 4 3 3 4 4 2 2 3 4 5 6 6 6 5 4 5 6 6 6 7 7 9 8 8 7 8 9 7 5 5 6 7 8 9 11 11 12 13 12 11 12 10 10 11 11 13 14 15 16 17 16 16 16 15
6 5 4 4 4 5 4 3 3 4 5 7 5 1 1 2 3 2 2 3 4 5 5 6 6 6 6 6 7 7 7 8 9 7 4 3 3 4 6 7 7 7 9 10 10 10 9 11 12 12 12 11 12 12 13 15 17 17 17 17 17 17
6 5 5 5 4 4 4 3 3 5 7 6 3 1 1 2 3 5 4 4 4 4 5 6 7 7 8 7 6 7 7 7 7 7 4 2 2 3 4 6 6 7 9 9 10 10 8 8 10 10 10 12 15 14 14 15 16 17 18 17 17 17
5 4 4 4 3 3 3 3 3 4 6 5 4 5 7 7 8 7 5 3 3 4 5 8 9 11 10 8 6 6 7 6 5 5 4 4 3 1 1 3 4 5 6 7 7 9 10 11 11 10 9 9 12 14 16 17 16 17 18 17 17 16
5 4 5 5 4 4 3 3 2 1 4 4 5 8 9 8 6 4 2 3 5 4 4 5 6 7 9 8 5 5 6 4 4 3 2 3 3 3 2 2 2 3 4 6 6 7 9 11 9 9 9 8 8 10 13 15 16 16 17 18 17 16
6 5 6 7 5 4 3 2 2 2 3 3 4 7 7 7 7 6 5 6 6 4 4 4 4 3 6 7 4 4 5 4 4 3 2 2 3 4 4 3 2 2 4 5 5 6 7 8 9 10 9 9 9 9 9 10 12 13 14 15 15 15
7 6 7 8 7 6 4 3 3 3 2 2 3 4 4 5 5 6 5 6 6 5 5 5 5 3 3 4 4 4 5 5 5 4 2 2 2 3 3 4 3 4 4 4 4 6 6 7 8 9 8 7 8 9 9 9 10 11 12 13 13 14
8 8 9 9 8 7 4 3 4 3 2 1 1 2 3 4 6 6 5 5 5 4 5 6 6 4 1 2 3 4 5 5 4 4 3 3 3 3 3 3 3 3 3 3 4 6 5 5 5 5 5 5 6 8 9 9 8 10 13 14 13 13
8 7 8 8 7 7 7 6 5 4 4 4 2 2 3 4 5 5 5 4 4 4 5 5 6 4 2 2 3 3 2 3 5 3 2 2 2 3 3 3 2 2 2 2 3 4 4 3 2 2 3 3 4 8 13 14 11 8 6 8 8 9
7 6 6 7 6 6 8 8 7 6 6 6 3 2 4 4 4 4 3 3 4 5 5 5 6 4 4 3 2 3 3 3 4 4 4 4 3 3 3 2 2 2 3 3 3 4 4 3 2 2 3 3 5 10 16 22 22 17 12 6 6 7
6 5 6 6 5 5 7 7 6 6 6 5 4 2 4 3 2 2 3 3 5 6 6 6 7 6 5 5 4 3 3 3 3 3 3 3 3 3 3 2 1 2 3 3 3 5 4 3 3 2 1 3 5 7 11 21 27 22 17 13 11 11
7 7 6 5 4 4 6 6 7 7 7 6 4 2 1 3 2 2 3 4 5 6 6 6 6 6 6 5 5 4 4 3 2 2 1 1 2 2 3 2 1 2 3 3 4 4 4 2 2 1 1 1 2 3 4 13 22 23 20 19 18 17
9 7 6 5 5 5 6 6 8 8 7 6 4 3 3 5 3 1 3 5 5 5 5 6 6 6 6 6 5 4 4 4 3 3 2 1 1 1 2 1 1 1 1 3 3 4 5 3 3 2 1 1 1 2 1 4 12 18 19 20 18 18
9 6 5 5 6 6 6 7 7 7 7 7 6 6 7 7 5 3 4 5 5 5 4 5 5 6 6 6 6 5 5 5 5 4 4 3 3 2 2 0 1 2 2 1 2 4 5 4 3 3 3 2 1 1 2 2 6 11 15 18 16 17
9 6 4 5 6 5 5 5 6 6 6 6 5 6 7 7 5 4 4 5 5 5 4 5 5 5 6 6 6 6 6 5 5 4 4 4 4 3 3 1 1 1 1 1 2 4 6 6 5 4 3 2 1 2 3 4 4 5 10 15 15 16
9 6 4 5 6 5 3 3 5 6 6 5 5 5 5 5 3 3 4 5 5 4 4 4 4 5 5 5 6 6 6 5 4 4 4 4 4 4 4 3 3 2 2 3 3 5 7 7 6 6 5 4 4 5 5 3 3 4 5 8 13 17
9 7 5 6 7 4 3 4 4 6 7 6 5 5 5 4 4 4 5 5 5 4 3 3 3 4 4 4 5 6 6 5 4 5 5 5 5 5 4 4 5 5 5 5 4 5 7 7 7 8 9 10 9 7 6 4 4 6 4 3 7 12
10 8 6 7 7 4 5 6 6 7 8 4 4 8 7 5 6 6 6 7 6 4 3 2 3 5 5 5 5 6 6 5 6 6 6 7 7 7 7 7 7 7 7 7 7 7 7 7 7 9 10 12 11 9 8 7 7 8 6 4 3 4
11 9 8 8 7 6 6 7 6 7 7 4 6 11 8 8 9 8 8 9 8 5 3 3 4 6 7 5 5 6 6 6 8 8 9 9 10 10 10 10 9 9 9 9 9 9 9 9 9 8 9 10 11 9 8 6 7 8 7 6 5 4
12 10 9 8 7 6 7 7 7 7 7 6 8 11 10 10 11 10 9 10 8 5 3 3 4 5 6 4 4 5 6 7 8 9 10 10 10 10 11 11 10 10 10 10 11 11 11 11 11 11 10 10 10 8 7 6 6 7 7 6 6 5
13 11 10 9 7 7 6 7 8 7 7 6 6 9 11 12 11 11 11 10 9 6 4 4 4 5 5 4 3 4 4 4 6 8 9 8 8 8 8 9 9 9 10 10 10 10 11 11 11 12 12 11 10 9 9 9 8 9 9 11 11 7
14 12 11 9 8 8 7 7 9 8 7 5 4 8 12 11 11 11 11 11 9 6 5 5 5 5 5 3 3 3 3 4 5 7 7 6 6 7 7 7 8 8 9 9 9 9 9 9 10 11 10 10 10 9 9 8 9 10 10 13 16 10
15 13 11 10 9 10 8 8 9 9 9 6 5 9 11 10 11 11 11 10 8 5 4 5 5 4 3 3 2 2 4 5 6 7 6 5 6 6 5 6 7 8 9 8 7 8 8 9 9 9 9 9 10 10 10 8 8 8 8 11 16 14
17 15 13 12 12 12 10 9 9 10 10 8 7 10 10 10 10 11 10 8 6 5 3 5 6 3 2 3 2 3 5 6 6 7 6 5 6 5 4 6 7 8 8 8 6 6 8 9 10 9 9 9 10 10 10 9 7 6 6 9 14 19
20 18 16 14 14 14 13 12 11 11 11 9 9 11 11 10 10 10 10 8 7 5 2 6 7 2 2 4 3 4 5 5 7 7 5 5 7 6 5 7 7 6 7 6 6 6 7 8 9 10 11 11 11 11 10 9 8 6 5 7 10 18
22 20 18 17 16 15 15 14 13 13 12 10 11 13 10 10 10 10 10 9 7 4 1 5 6 3 3 5 4 4 5 7 8 7 5 6 7 6 5 6 7 6 6 6 7 8 8 7 8 9 11 11 11 10 9 9 10 8 7 9 10 13
Wind_Direction
122 128 131 128 126 129 134 137 135 135 133 133 140 144 145 143 151 151 137 133 129 120 116 112 109 102 90 111 111 102 97 102 129 161 177 184 183 181 175 171 164 155 148 131 123 126 145 164 172 172 172 171 138 40 29 23 3 332 219 211 208 204
127 131 132 130 129 134 139 142 139 138 135 132 135 136 139 147 156 152 138 123 110 106 107 104 99 74 20 350 1 53 86 82 81 118 165 182 186 192 194 193 192 190 184 160 144 137 145 165 180 187 197 210 218 242 351 21 12 0 222 208 210 214
131 130 128 128 128 131 136 138 135 136 135 131 132 136 142 150 149 140 131 115 97 87 90 88 80 53 353 333 312 305 318 352 26 16 258 216 198 194 202 209 211 214 214 200 178 160 157 163 177 194 211 227 240 249 280 23 19 350 227 205 210 221
132 131 132 130 129 132 138 140 139 140 135 130 137 152 161 154 142 130 123 124 100 58 52 55 65 338 285 293 293 291 294 308 321 328 293 258 238 216 207 217 221 224 226 224 215 207 199 188 189 208 224 235 243 247 254 349 357 294 223 213 220 237
138 139 139 138 135 135 140 141 144 144 137 134 145 163 164 155 145 132 110 97 37 3 1 345 356 310 287 279 281 284 280 295 314 325 300 276 258 252 258 232 228 231 236 243 240 234 234 245 268 276 270 264 258 255 264 295 312 278 236 235 247 257
142 143 146 149 142 139 142 140 143 144 144 142 146 154 148 150 156 140 109 100 111 285 303 308 281 259 273 276 279 288 286 291 304 307 296 286 281 280 282 244 237 248 255 265 266 258 258 269 278 280 278 275 265 262 268 280 293 283 251 247 258 266
145 145 150 156 150 143 143 141 143 147 157 160 156 164 159 149 148 60 75 104 178 267 298 312 306 281 272 274 276 288 293 293 296 298 294 291 292 293 292 270 260 263 267 274 283 279 278 283 281 277 279 278 266 257 259 267 276 277 263 256 260 269
153 152 153 156 153 145 143 147 149 150 159 163 163 185 270 19 41 27 39 28 357 353 355 345 332 318 307 297 291 289 293 295 295 297 294 292 293 294 294 292 285 280 277 281 286 286 288 291 287 280 276 272 264 255 257 264 268 269 265 261 263 270
158 158 161 161 153 148 152 154 147 136 109 77 41 31 22 22 35 43 41 22 5 359 4 357 353 355 345 333 321 303 291 288 296 299 293 291 294 295 290 290 293 291 284 280 280 285 290 288 287 283 271 267 264 258 260 263 264 266 263 262 264 268
165 167 171 166 158 156 158 154 137 116 87 68 54 50 40 27 30 31 30 24 22 16 354 352 0 17 11 4 355 336 308 285 287 292 288 290 293 295 292 286 289 291 289 282 276 279 283 281 286 283 270 268 266 260 259 256 257 264 264 263 264 266
179 184 175 157 145 139 134 133 122 110 101 79 53 51 43 34 23 18 18 23 30 29 13 9 18 25 21 17 10 5 354 320 301 292 288 291 295 299 301 299 299 298 295 290 283 280 279 282 290 289 276 270 266 262 260 257 260 265 266 265 264 264
184 181 154 120 103 97 89 92 93 87 64 20 358 352 38 34 10 359 2 11 27 33 31 23 22 17 12 8 3 8 18 18 357 316 293 287 291 316 321 319 318 319 317 311 301 290 283 288 293 295 291 278 268 265 264 265 268 268 267 267 267 266
175 161 135 119 100 79 64 67 71 56 31 8 351 320 266 330 335 312 322 12 32 30 23 16 11 2 347 339 342 355 10 23 22 359 321 281 289 324 336 339 338 346 350 348 343 325 299 298 301 297 294 287 278 274 273 275 274 272 271 271 271 270
171 159 138 119 101 76 56 53 64 60 47 27 6 112 87 67 111 131 127 88 54 20 3 349 338 329 320 311 319 347 2 15 26 30 37 29 337 325 336 351 348 351 354 356 6 11 0 343 339 326 308 294 285 279 277 281 281 276 274 274 275 274
188 176 158 139 125 113 96 90 92 70 63 60 73 101 103 108 121 127 124 90 36 357 334 325 321 321 325 320 314 343 1 5 14 29 51 55 45 29 331 342 344 353 357 352 357 14 19 12 7 356 339 317 294 281 275 278 280 278 277 278 277 277
193 196 191 173 158 145 129 118 153 124 80 76 78 95 102 103 105 94 65 23 10 355 340 337 337 341 348 343 320 338 353 353 352 348 8 33 47 50 29 5 356 358 354 350 351 2 16 19 17 6 355 351 336 313 290 281 283 283 282 283 284 282
183 192 192 184 178 171 159 132 161 150 102 77 77 92 93 86 72 58 49 37 34 37 33 17 3 350 358 3 347 336 344 341 346 343 334 359 37 45 45 58 63 40 3 352 351 357 12 21 19 10 1 353 344 331 312 295 291 292 287 284 284 281
172 175 179 186 185 179 166 129 126 123 107 75 72 80 77 62 36 29 36 44 52 51 30 10 360 335 340 15 11 350 350 341 332 334 336 348 22 33 32 37 43 44 29 8 9 14 14 14 13 10 4 352 341 329 321 311 298 293 289 286 284 285
167 165 168 176 182 188 185 164 150 127 138 166 73 36 16 4 7 22 35 45 45 23 6 2 7 3 1 36 6 345 347 355 355 340 334 339 350 359 2 8 21 40 40 21 24 23 7 357 4 4 351 344 348 349 348 337 314 296 287 286 291 295
170 171 178 186 201 216 212 199 187 163 166 172 149 43 31 24 36 59 62 52 24 0 358 2 9 20 41 34 3 0 4 41 51 42 26 24 26 28 23 23 31 42 37 24 32 25 5 0 355 341 342 353 30 43 41 39 33 21 332 303 309 317
171 182 196 199 206 214 211 209 208 194 172 162 158 80 71 72 77 83 66 26 8 16 21 17 19 28 34 24 22 39 53 67 67 69 78 72 65 76 83 86 76 56 35 26 35 27 25 39 35 4 350 15 75 79 64 54 51 54 57 46 23 16
176 184 186 187 189 187 188 189 190 187 164 156 174 120 91 101 102 84 45 15 24 42 43 37 39 44 49 53 63 63 51 56 60 63 78 79 74 85 95 112 111 83 70 55 47 37 37 56 51 33 348 2 53 86 73 57 55 59 65 65 64 67
191 193 183 173 172 170 168 158 150 152 144 142 170 189 143 144 143 83 44 42 53 55 44 40 47 53 59 66 68 63 56 56 59 44 53 90 88 85 80 85 93 97 98 83 73 56 46 69 100 106 95 14 24 79 59 48 55 62 65 68 75 82
192 196 188 162 129 124 143 151 145 148 149 139 137 152 147 138 142 102 65 71 71 63 50 42 48 57 60 65 66 62 59 59 64 58 41 61 76 77 78 79 66 54 60 77 87 69 52 82 139 176 126 84 110 88 20 27 58 64 69 73 77 84
194 198 198 176 149 132 137 147 147 149 158 152 133 131 135 133 133 113 87 88 83 78 74 56 53 62 62 61 61 55 55 56 61 61 50 56 67 67 63 26 2 328 320 55 115 98 77 87 117 170 175 139 94 93 216 181 91 67 70 79 84 91
200 203 198 186 175 159 148 156 165 166 168 170 160 145 142 139 133 116 98 99 98 92 92 73 61 69 67 59 55 51 54 58 62 63 58 63 70 70 65 62 48 336 316 104 178 149 114 105 109 125 148 143 97 142 185 166 119 83 72 79 90 98
206 208 207 188 175 163 161 187 195 206 209 189 177 167 152 140 124 121 116 113 112 100 94 83 68 69 70 60 51 45 46 52 60 65 70 76 76 76 78 82 90 98 116 137 181 165 135 129 127 118 125 134 121 131 156 159 133 135 99 80 85 90
210 214 218 182 169 175 194 195 184 188 191 182 182 182 170 153 137 139 135 128 129 120 101 90 73 64 71 68 50 42 43 50 60 63 68 76 79 82 84 88 95 102 113 123 133 134 131 137 134 120 122 130 129 132 150 163 144 133 132 116 95 88
211 215 219 187 182 202 199 191 181 172 172 170 183 179 174 173 163 156 147 140 142 138 115 90 72 69 80 77 54 44 47 64 76 76 78 83 84 84 86 89 94 99 103 106 107 106 108 115 124 126 130 131 127 123 119 118 117 114 115 128 142 118
210 211 219 207 204 210 199 196 195 188 187 170 163 171 174 174 171 165 153 146 143 138 115 84 79 83 87 79 60 54 61 86 95 94 95 93 90 88 89 92 94 96 98 99 101 101 99 98 100 110 125 131 126 120 112 101 97 103 106 109 119 135
209 211 220 216 207 206 201 203 201 192 194 182 171 179 175 164 165 160 149 143 142 138 116 94 93 89 85 78 70 64 70 94 105 105 104 99 95 93 92 95 98 98 99 99 100 100 101 101 98 95 97 104 108 109 109 105 104 112 119 121 117 116
208 212 218 216 210 212 207 207 206 191 187 191 187 183 171 158 158 158 152 146 145 142 135 134 118 87 81 81 76 72 74 92 107 109 107 102 99 98 96 98 99 98 98 98 101 101 101 101 101 98 95 94 96 100 104 105 109 114 123 135 131 127
209 210 217 217 211 216 218 212 209 199 193 201 192 176 169 161 159 162 162 158 151 141 139 145 129 92 86 87 72 73 83 95 113 116 110 104 101 102 103 103 100 101 101 99 100 96 93 100 104 101 101 103 100 98 101 105 111 112 116 131 132 130
210 211 217 218 209 214 221 214 207 204 202 205 190 176 172 167 164 164 164 160 151 143 147 151 138 112 102 107 85 93 110 110 119 120 113 109 109 106 103 102 104 105 102 100 104 97 91 100 107 103 103 108 103 95 94 96 102 109 113 126 133 133
211 212 215 216 212 215 219 211 204 203 203 206 194 181 178 176 173 170 169 166 157 149 164 176 162 133 125 145 127 133 134 123 122 121 111 112 124 120 97 100 112 112 104 102 106 104 99 101 102 99 101 108 108 97 90 88 86 96 113 124 138 141
211 212 213 213 212 215 215 206 200 200 204 208 195 182 179 178 177 175 174 174 163 151 178 196 184 162 147 163 151 150 151 135 128 123 107 106 126 128 100 102 114 110 106 111 112 106 101 102 98 97 103 108 108 100 91 89 85 87 119 126 141 150
210 212 212 212 211 211 211 206 203 201 203 202 191 187 185 180 178 175 172 172 162 149 190 205 191 172 155 160 154 155 146 132 130 127 117 111 120 125 108 102 105 99 109 122 117 108 101 101 100 101 108 107 104 102 97 94 90 92 116 125 131 152